TimeCST,TemperatureF,Dew PointF,Humidity,Sea Level PressureIn,VisibilityMPH,Wind Direction,Wind SpeedMPH,Gust SpeedMPH,PrecipitationIn,Events,Conditions,WindDirDegrees,DateUTC
12:53 AM,36.0,24.1,62,30.19,10.0,NW,10.4,-,N/A,,Overcast,320,2013-02-15 06:53:00
1:53 AM,35.1,26.1,70,30.21,10.0,NW,13.8,-,N/A,,Overcast,310,2013-02-15 07:53:00
2:53 AM,32.0,19.0,59,30.25,10.0,NNW,18.4,26.5,0.00,,Overcast,340,2013-02-15 08:53:00
3:06 AM,32.0,19.4,60,30.23,10.0,North,17.3,25.3,N/A,,Overcast,350,2013-02-15 09:06:00
3:53 AM,30.9,15.1,52,30.27,10.0,NNW,16.1,-,N/A,,Overcast,340,2013-02-15 09:53:00
4:53 AM,28.9,14.0,54,30.30,10.0,North,15.0,-,N/A,,Overcast,350,2013-02-15 10:53:00
5:53 AM,25.0,12.9,60,30.33,10.0,NNW,10.4,-,N/A,,Clear,340,2013-02-15 11:53:00
6:53 AM,23.0,12.9,65,30.35,10.0,NW,8.1,-,N/A,,Clear,320,2013-02-15 12:53:00
7:53 AM,23.0,10.9,60,30.38,10.0,NW,8.1,-,N/A,,Clear,320,2013-02-15 13:53:00
8:53 AM,25.0,12.0,58,30.40,10.0,NW,9.2,-,N/A,,Clear,310,2013-02-15 14:53:00
9:53 AM,28.0,12.9,53,30.39,10.0,NW,6.9,-,N/A,,Clear,310,2013-02-15 15:53:00
10:53 AM,30.0,10.0,43,30.39,10.0,NW,10.4,17.3,N/A,,Clear,310,2013-02-15 16:53:00
11:53 AM,30.9,6.1,35,30.38,10.0,NW,10.4,-,N/A,,Clear,310,2013-02-15 17:53:00
12:53 PM,34.0,5.0,30,30.35,10.0,West,10.4,18.4,N/A,,Clear,270,2013-02-15 18:53:00
1:53 PM,35.1,8.1,33,30.33,10.0,WNW,10.4,19.6,N/A,,Clear,290,2013-02-15 19:53:00
2:53 PM,35.1,10.9,37,30.32,10.0,NW,13.8,25.3,N/A,,Clear,320,2013-02-15 20:53:00
3:53 PM,37.0,10.0,33,30.32,10.0,NNW,16.1,-,N/A,,Clear,330,2013-02-15 21:53:00
4:53 PM,34.0,10.9,38,30.33,10.0,North,12.7,-,N/A,,Clear,350,2013-02-15 22:53:00
5:53 PM,30.9,12.0,46,30.32,10.0,NNW,6.9,-,N/A,,Clear,340,2013-02-15 23:53:00
6:53 PM,30.9,12.0,46,30.32,10.0,NNE,4.6,-,N/A,,Clear,20,2013-02-16 00:53:00
7:53 PM,30.0,14.0,51,30.32,10.0,NE,4.6,-,N/A,,Overcast,50,2013-02-16 01:53:00
8:53 PM,30.0,14.0,51,30.33,10.0,NNE,6.9,-,N/A,,Overcast,30,2013-02-16 02:53:00
9:22 PM,28.4,17.6,64,30.31,2.5,North,10.4,-,0.00,Snow,Light Snow,360,2013-02-16 03:22:00
9:30 PM,26.6,21.2,80,30.31,1.0,NNE,10.4,-,0.00,Snow,Light Snow,30,2013-02-16 03:30:00
9:44 PM,26.6,21.2,80,30.30,1.5,NE,9.2,-,0.00,Snow,Light Snow,40,2013-02-16 03:44:00
9:53 PM,26.1,21.9,84,30.34,1.8,NNE,6.9,-,0.00,Snow,Light Snow,30,2013-02-16 03:53:00
10:22 PM,26.6,21.2,80,30.30,2.5,North,4.6,-,0.00,Snow,Light Snow,360,2013-02-16 04:22:00
10:53 PM,26.1,21.9,84,30.33,1.0,NE,4.6,-,0.00,Snow,Light Snow,40,2013-02-16 04:53:00
11:04 PM,26.6,23.0,86,30.29,1.2,NNE,5.8,-,0.01,Snow,Light Snow,20,2013-02-16 05:04:00
11:15 PM,26.6,21.2,80,30.29,3.0,North,5.8,-,0.01,Snow,Light Snow,360,2013-02-16 05:15:00
11:25 PM,24.8,21.2,86,30.29,4.0,NE,4.6,-,0.01,Snow,Light Snow,50,2013-02-16 05:25:00
11:53 PM,25.0,21.0,85,30.33,9.0,Calm,Calm,-,0.01,,Overcast,0,2013-02-16 05:53:00